SCP
0 0 0 0 0 0 0 0 0 0 0 0 0 0 0 0 0 0 0 0 0 0 0 0 0 -0 -0 0 0 0 0 0 0 0 0 0 0 0 0 0 0 0 0 0 0 0 0
0 0 0 0 0 0 0 0 0 0 0 0 0 0 0 0 0 0 0 0 0 0 0 0 0 0 0 0 0 0 0 0 0 0 0 0 0 0 0 0 0 0 0 0 0 0 0
0 0 0 0 0 0 0 0 0 0 0 0 0 0 0 0 0 0 0 0 0 0 0 0 0 0 0 0 0 0 0 0 0 0 0 0 0 0 0 0 0 0 0 0 0 0 0
0 0 0 0 0 0 0 0 0 0 0 0 0 0 0 0 0 0 0 0 0 0 0 0 0 0 0 0 0 0 0 0 0 0 0 0 0 0 0 0 0 0 0 0 0 0 0
0 0 0 0 0 0 0 0 0 0 0 0 0 0 0 0 0 0 0 0 0 0 0 0 0 0 -0 0 0 0 0 0 0 0 0 0 0 0 0 0 0 0 0 0 0 0 0
0 0 0 0 0 0 0 0 0 0 0 0 0 0 0 0 0 0 -0 0 0 0 0 0 0 0 0 -0 0 0 0 0 -0 0 0 0 0 0 0 0 0 0 0 0 0 0 0
0 0 0 0 0 0 0 0 0 0 0 0 0 0 0 0 0 0 0 0 0 0 0 0 0 0 0 -0 0 0 0 0 0 0 0 0 0 0 0 0 0 0 0 0 0 0 0
0 0 0 0 0 0 0 0 0 0 0 0 0 0 0 0 0 0 0 0 0 0 0 0 0 0 0 0 0 0 0 0 0 0 -0 0 0 0 0 0 0 0 0 0 0 0 0
0 0 0 0 0 0 0 0 0 0 0 0 0 0 0 0 0 0 0 0 0 0 0 0 0 0 0 0 0 0 0 0 0 0 0 0 0 0 0 0 0 0 0 0 0 0 0
0 0 0 0 0 0 0 0 0 0 0 0 0 0 0 0 0 0 0 0 0 0 0 0 0 0 -0 0 0 0 0 0 0 0 0 0 0 0 0 0 0 0 0 0 0 0 0
0 0 0 0 0 0 0 0 0 0 0 0 0 0 0 0 0 0 0 0 0 0 0 0 0 0 0 0 0 0 0 -0 0 0 0 0 0 0 0 0 0 0 0 0 0 0 0
0 0 0 0 0 0 0 0 0 0 0 0 0 0 0 0 0 0 0 0 0 0 0 0 0 0 0 0 0 0 0 0 0 0 0 0 0 0 0 0 0 0 0 0 0 0 0
0 0 0 0 0 0 0 0 0 0 0 -0 0 0 0 0 0 0 0 0 0 0 0 0 0 0 0 0 0 0 0 0 0 0 0 0 0 0 0 0 0 0 0 0 0 0 0
0 0 0 0 0 0 0 0 0 0 0 0 0 0 0 0 0 0 0 0 0 0 0 0 0 0 0 0 0 0 0 0 0 0 0 0 0 0 0 0 0 0 0 0 0 0 0
0 0 0 0 0 0 0 0 0 0 0 0 0 0 0 0 0 0 0 0 0 0 0 0 0 0 0 0 -0 0 0 0 0 0 0 0 0 0 0 0 0 0 0 0 0 0 0
0 0 0 0 0 0 0 0 0 0 -0 0 0 0 0 0 0 0 0 0 0 0 0 0 0 0 0 0 0 0 0 0 0 0 0 0 0 0 0 0 0 0 0 0 0 0 0
0 0 0 0 0 0 0 0 0 -0 -0 0 0 0 0 0 0 0 0 0 0 0 0 0 0 0 -0 -0 0 0 0 0 0 0 0 0 0 0 0 0 0 0 0 0 0 0 -0
0 0 0 0 0 0 0 0 -0 -0 -0 0 0 0 0 0 0 0 0 0 0 0 0 0 0 0 0 0 0 0 0 0 0 0 0 0 0 0 0 0 0 0 0 0 0 0 0
0 0 0 0 0 0 0 -0 -0 -0 0 0 0 0 0 0 0 0 0 0 0 0 0 0 0 0 0 0 0 0 0 0 0 0 0 0 0 0 0 0 0 0 0 0 0 0 0
0 0 0 0 0 0 0 -0 -0 -0 0 0 0 0 0 0 0 0 0 0 0 0 0 -0 0 0 0 0 0 0 0 0 0 0 0 0 0 0 0 0 0 0 0 0 0 0 0
0 0 0 0 0 0 0 -0 -0 -0 0 0 0 0 0 0 0 0 0 0 0 0 0 -0 0 0 0 0 0 0 0 0 0 0 0 0 0 0 0 0 0 0 0 0 0 0 0
0 0 0 0 0 0 0 -0 -0 0 0 0 0 0 0 0 0 0 0 0 0 0 0 0 -0 0 0 0 0 0 0 0 0 0 0 0 0 0 0 0 0 0 0 0 0 0 0
0 0 0 0 0 0 0 0 0 0 0 0 0 0 0 0 0 0 0 0 0 0 0 0 0 0 0 0 0 0 0 0 0 0 0 0 0 0 0 0 0 0 0 0 0 0 0
0 0 0 0 0 0 0 0 0 0 0 0 0 0 0 0 0 0 0 0 0 0 0 0 -0 0 0 0 0 0 0 0 0 0 0 0 0 0 0 0 0 0 0 0 0 0 0
0 0 0 0 0 0 0 0 0 0 0 0 0 0 0 0 0 0 0 0 0 0 0 0 0 0 0 0 0 0 0 0 0 0 0 0 0 0 0 0 0 0 0 0 0 0 0
0 0 0 0 0 0 0 0 0 0 0 0 0 0 0 0 0 0 0 0 0 0 0 0 -0 -0 0 0 0 0 0 0 0 0 0 0 0 0 0 0 0 0 0 0 0 0 0
0 0 0 0 0 0 0 0 0 0 0 0 0 0 0 0 0 0 0 0 0 0 0 0 0 -0 0 0 0 0 0 0 0 0 0 0 0 0 0 0 0 0 0 0 0 0 0
0 0 0 0 0 0 0 0 0 0 0 0 -0 -0 -0 -0 -0 0 0 0 0 0 0 0 0 -0 -0 -0 0 0 0 0 0 0 0 0 0 0 0 0 0 0 0 0 0 0 0
0 0 0 0 0 0 0 0 0 0 -0 -0 -0 -0 -0 -0 -0 -0 0 0 0 0 0 0 0 0 -0 -0 0 0 0 0 0 0 0 0 0 0 0 0 0 0 0 0 0 0 0
Wind_Speed_500mb
38 37 39 41 39 39 41 39 38 36 39 41 32 21 32 33 26 21 21 24 26 27 23 18 12 7 4 6 9 4 7 7 31 35 41 34 43 28 21 14 21 12 21 44 23 17 16
37 38 37 40 40 39 41 37 39 36 34 37 36 28 24 29 25 25 21 24 28 28 21 17 14 6 6 4 5 6 4 7 28 40 36 35 32 29 22 16 13 27 11 31 31 27 13
42 39 39 39 40 41 41 37 38 39 35 34 38 34 25 25 26 21 20 19 22 24 16 13 15 10 9 11 4 1 13 14 2 25 17 47 34 30 25 10 19 16 20 8 22 22 11
43 43 41 39 39 40 42 39 43 37 37 35 37 35 31 20 26 18 19 17 17 18 15 8 10 12 7 8 11 7 11 14 10 24 15 37 35 21 10 9 18 10 9 17 11 32 6
41 44 43 39 39 40 43 41 44 43 39 38 36 36 33 24 22 15 18 16 13 12 9 8 9 13 6 5 3 1 9 14 21 16 23 32 28 19 12 13 7 9 11 13 13 33 14
40 43 44 41 38 40 41 40 43 45 43 40 37 37 36 24 17 12 14 12 8 6 12 8 8 4 0 9 3 4 11 15 15 24 32 24 4 6 7 13 34 19 13 9 17 23 15
42 41 43 43 39 39 41 42 41 48 44 42 39 40 28 20 12 10 8 2 3 3 6 6 14 10 12 8 9 3 8 11 25 29 11 11 3 22 15 6 10 14 14 15 8 19 17
46 44 44 42 40 37 41 41 41 45 47 46 41 40 22 17 8 5 2 3 6 2 4 6 7 9 9 3 4 4 12 7 7 13 22 10 2 12 16 4 16 16 14 7 7 23 13
43 45 42 42 38 37 38 40 42 44 47 46 44 36 18 12 6 6 3 6 6 3 2 8 8 8 6 5 3 8 9 15 9 19 15 16 4 19 10 9 17 4 15 9 11 8 4
38 41 40 42 37 38 36 39 43 44 45 47 42 30 11 6 1 7 6 8 0 4 7 3 2 3 2 2 6 4 15 11 8 18 19 6 3 15 13 10 11 8 11 13 20 9 9
33 39 39 39 35 36 36 38 42 41 41 44 40 22 6 1 3 5 4 6 3 2 9 10 0 3 2 0 16 3 3 8 9 16 9 13 36 17 12 15 8 5 12 12 7 8 7
39 42 39 35 32 35 37 37 40 39 40 41 37 11 4 2 3 5 3 5 4 10 1 2 1 5 5 5 3 10 4 6 19 10 7 10 9 5 5 6 8 15 13 14 8 3 4
38 38 36 32 30 32 34 39 38 39 40 37 29 2 4 4 5 7 4 6 8 9 4 2 4 5 4 6 8 4 7 5 6 9 4 12 6 3 5 14 5 8 10 5 3 2 7
45 33 33 32 29 29 32 38 39 40 40 35 20 4 4 5 10 4 5 6 10 4 6 5 5 9 6 3 6 1 11 5 4 3 9 7 12 5 9 7 11 6 7 8 11 9 6
43 33 31 32 27 27 31 37 39 40 38 30 9 7 1 4 6 2 3 7 11 11 8 5 3 7 3 5 5 2 2 8 6 3 8 9 6 4 8 1 4 7 4 7 11 4 2
40 35 30 31 26 27 30 39 38 38 34 23 2 8 3 3 5 1 6 7 3 5 5 2 4 4 6 5 5 3 4 4 8 3 1 6 10 7 4 2 13 5 11 5 5 3 5
41 34 30 29 25 27 33 36 34 33 29 16 6 6 5 5 2 1 4 9 5 9 5 6 4 3 4 6 4 5 3 2 5 6 8 7 6 5 6 4 10 5 4 8 6 4 5
40 34 31 28 24 26 32 29 30 28 23 11 6 2 5 4 3 4 3 7 3 4 6 5 2 3 7 9 6 3 5 5 8 13 8 4 9 6 3 5 1 3 8 9 7 8 2
42 37 31 26 22 24 27 25 26 24 17 6 5 5 5 6 2 3 6 2 4 1 1 3 1 3 4 5 5 2 6 2 11 8 11 11 3 9 3 2 5 8 8 6 9 6 11
47 38 32 25 20 21 20 21 23 21 12 3 5 2 3 5 5 5 5 5 2 4 3 4 4 6 5 5 8 7 5 4 9 2 7 9 6 10 12 7 9 10 12 16 14 10 15
50 39 34 25 18 18 15 18 19 18 7 2 5 3 4 3 2 5 1 1 3 4 9 12 6 7 1 5 3 3 3 3 7 9 6 5 5 5 2 4 6 6 9 22 28 34 19
52 41 36 24 17 14 10 14 16 14 5 4 7 9 7 2 2 3 7 4 4 7 6 5 7 5 3 4 1 10 7 5 6 4 6 4 4 5 5 3 8 7 15 16 28 31 37
51 43 36 25 16 8 5 10 13 12 6 4 10 13 9 4 2 5 1 2 5 5 3 11 3 2 7 6 11 10 8 2 5 12 6 6 7 4 5 4 4 9 13 21 11 9 30
54 46 38 26 16 7 2 9 10 10 9 5 12 13 8 3 4 4 3 3 5 7 3 10 9 4 6 17 3 2 14 14 13 9 8 11 9 3 3 4 2 9 3 5 19 13 18
57 50 40 28 19 11 7 10 9 10 12 9 15 8 7 6 8 5 6 4 5 7 4 4 6 10 15 7 4 5 7 4 5 7 4 4 8 5 5 5 11 3 2 7 8 8 9
58 52 42 30 23 17 13 11 9 9 11 12 16 12 8 20 2 7 6 7 3 6 10 3 3 8 4 5 3 6 7 6 3 1 7 6 8 6 4 4 7 8 4 6 5 6 7
61 55 45 34 28 25 19 15 10 11 11 12 17 12 10 16 8 6 7 5 3 4 1 6 16 9 11 3 4 5 5 7 7 9 7 6 4 7 6 6 11 12 9 16 5 8 11
65 59 47 39 34 29 24 19 13 14 12 13 16 13 13 14 15 13 9 4 2 2 2 9 1 8 5 3 4 6 6 8 5 7 10 10 10 6 6 6 11 11 7 7 9 8 13
70 60 50 45 40 32 27 21 17 16 12 15 16 21 30 15 20 17 19 16 10 3 1 5 4 5 4 3 3 2 1 2 6 4 1 5 10 8 13 10 7 15 14 17 19 26 28
Wind_Direction_500mb
349 342 338 338 341 344 349 346 346 347 344 342 339 327 323 332 333 336 333 342 348 348 351 353 360 359 28 217 251 209 20 150 194 198 200 182 175 190 173 174 162 189 169 194 136 118 148
343 340 334 334 337 339 346 343 344 344 344 336 339 332 316 321 321 325 329 335 345 346 343 356 358 342 306 286 340 218 202 113 191 186 197 172 171 182 174 180 178 184 170 177 186 160 142
334 337 331 331 332 339 341 344 344 344 342 339 332 333 328 323 320 316 320 331 336 342 331 345 349 339 299 279 326 353 195 173 163 215 168 194 168 173 171 131 192 149 172 158 178 181 188
326 331 329 327 329 335 339 342 347 340 341 336 329 330 329 313 318 310 307 313 332 352 3 359 351 338 280 305 284 251 195 204 204 200 226 188 191 172 181 156 158 118 113 174 178 160 127
317 323 327 324 325 330 335 343 346 345 339 337 330 327 329 326 319 319 310 302 308 345 355 354 357 356 323 332 343 278 179 193 205 203 206 197 188 205 138 126 133 196 161 154 163 188 136
301 316 323 322 321 326 332 340 344 345 341 336 330 327 330 324 317 320 320 310 279 321 346 311 332 340 324 308 285 166 188 183 177 187 164 165 187 178 124 162 186 170 131 121 151 182 176
298 310 317 319 318 324 328 336 343 342 344 340 333 329 337 322 305 320 335 355 353 306 4 333 313 290 307 347 155 168 189 139 159 177 128 34 79 168 176 109 150 126 117 112 134 170 167
286 307 312 315 315 322 324 333 339 341 343 341 336 335 341 318 295 293 342 99 77 83 327 1 329 287 300 229 131 131 118 93 93 167 118 104 140 233 129 134 126 123 129 112 78 159 151
287 297 307 312 312 319 322 329 336 342 342 343 338 340 341 325 277 232 189 158 77 87 140 294 329 351 315 345 86 163 159 102 86 154 156 152 167 196 129 117 107 59 140 146 135 120 54
282 291 302 309 310 317 322 326 333 340 343 339 340 339 346 359 234 200 210 201 314 52 60 51 159 259 331 347 73 125 152 123 199 111 106 104 179 182 142 115 129 125 172 141 140 120 185
275 285 296 305 308 315 321 324 330 338 343 338 340 341 1 78 268 161 171 202 244 70 63 339 150 351 63 111 137 143 179 122 139 118 125 188 166 174 147 161 158 137 138 128 118 102 125
275 281 292 300 305 313 319 322 328 339 343 339 339 344 29 47 138 143 186 221 187 49 275 13 358 157 235 185 60 145 175 132 107 78 284 100 87 87 148 64 106 142 86 54 58 91 254
262 277 290 295 300 312 317 321 331 339 341 340 339 349 40 56 83 146 125 148 28 93 235 214 195 204 175 143 133 231 130 69 114 127 80 76 39 70 29 99 73 102 79 76 132 219 228
251 272 287 289 297 311 315 322 331 339 341 341 338 193 75 78 84 95 117 42 69 228 207 245 197 115 82 346 69 28 136 127 263 148 99 135 156 1 350 90 168 125 137 147 181 192 219
251 270 280 283 294 305 316 323 330 336 341 342 340 201 137 109 135 168 99 52 193 199 182 191 0 71 85 110 106 173 128 160 176 211 121 122 78 125 66 157 79 179 82 144 110 38 55
250 262 269 277 288 300 316 320 327 336 343 345 275 202 172 116 173 231 81 248 217 212 166 116 188 210 136 129 89 20 165 232 117 46 299 177 100 24 81 24 39 100 150 85 11 129 252
242 254 259 270 281 299 314 319 328 337 343 350 168 188 162 135 197 86 159 227 268 231 193 152 193 107 102 150 132 175 195 150 160 107 83 137 90 144 128 190 155 118 123 64 108 111 183
238 247 251 262 277 300 312 321 330 343 349 352 190 76 156 148 138 100 201 194 233 188 178 256 253 175 159 153 142 189 182 292 150 141 113 120 118 110 129 78 8 176 170 144 138 219 90
232 240 244 255 274 298 310 325 337 350 355 8 167 156 164 159 116 316 294 285 251 16 163 168 166 340 111 143 105 111 131 6 175 156 157 173 121 112 114 358 345 218 207 137 106 105 197
229 235 239 245 270 294 311 337 343 356 2 43 144 56 150 149 102 111 12 10 345 39 56 21 29 44 89 71 18 143 122 42 147 158 144 118 136 151 181 199 138 194 204 191 191 229 227
223 229 231 234 260 287 321 346 353 359 21 127 109 170 159 263 41 80 32 341 359 37 358 33 41 51 34 125 71 116 121 100 73 119 74 76 114 90 240 131 126 203 215 198 211 224 229
217 221 220 225 252 273 345 352 1 11 31 140 150 156 137 120 332 98 345 17 72 337 10 360 95 325 345 113 134 196 150 178 187 82 100 26 146 129 125 85 185 230 223 219 220 230 242
213 213 211 219 238 254 356 16 19 23 25 157 137 144 148 350 60 110 52 7 68 324 85 67 324 16 67 17 334 319 191 224 178 147 117 98 139 95 271 8 340 290 230 194 194 226 222
207 204 205 213 217 210 69 54 45 42 52 88 133 138 143 117 86 89 60 345 8 340 288 324 15 50 351 329 281 347 73 101 112 58 116 138 125 54 213 14 1 242 135 166 212 237 219
198 198 199 204 202 175 140 81 67 59 60 58 90 125 140 104 104 88 53 356 345 349 29 301 15 356 330 14 47 48 356 34 58 46 123 115 125 102 149 194 291 339 179 143 173 290 207
194 195 193 195 192 162 141 107 90 81 69 58 78 94 116 125 33 113 102 37 63 342 353 6 246 323 21 111 28 173 193 191 260 34 38 98 87 110 132 152 241 242 230 184 118 289 226
191 192 189 187 177 165 143 129 123 111 94 78 83 83 110 106 115 114 106 98 60 59 232 317 333 7 38 137 161 150 217 181 177 180 170 131 101 173 186 228 281 242 224 162 113 229 302
190 188 185 181 170 164 145 141 153 126 115 103 93 84 128 105 110 128 99 61 35 156 127 331 357 17 37 247 195 184 153 216 148 188 176 165 152 195 166 204 266 172 106 169 225 296 312
187 185 183 176 167 162 151 145 163 125 126 107 94 106 116 103 121 118 90 50 35 207 314 28 89 27 39 272 31 162 102 93 160 227 24 199 181 179 184 213 246 201 234 244 278 283 289
Wind_Speed_850mb
38 37 39 41 39 39 41 39 38 36 39 41 32 21 32 33 26 21 21 24 26 27 23 18 12 7 4 6 9 4 7 7 31 35 41 34 43 28 21 14 21 12 21 44 23 17 16
37 38 37 40 40 39 41 37 39 36 34 37 36 28 24 29 25 25 21 24 28 28 21 17 14 6 6 4 5 6 4 7 28 40 36 35 32 29 22 16 13 27 11 31 31 27 13
42 39 39 39 40 41 41 37 38 39 35 34 38 34 25 25 26 21 20 19 22 24 16 13 15 10 9 11 4 1 13 14 2 25 17 47 34 30 25 10 19 16 20 8 22 22 11
43 43 41 39 39 40 42 39 43 37 37 35 37 35 31 20 26 18 19 17 17 18 15 8 10 12 7 8 11 7 11 14 10 24 15 37 35 21 10 9 18 10 9 17 11 32 6
41 44 43 39 39 40 43 41 44 43 39 38 36 36 33 24 22 15 18 16 13 12 9 8 9 13 6 5 3 1 9 14 21 16 23 32 28 19 12 13 7 9 11 13 13 33 14
40 43 44 41 38 40 41 40 43 45 43 40 37 37 36 24 17 12 14 12 8 6 12 8 8 4 0 9 3 4 11 15 15 24 32 24 4 6 7 13 34 19 13 9 17 23 15
42 41 43 43 39 39 41 42 41 48 44 42 39 40 28 20 12 10 8 2 3 3 6 6 14 10 12 8 9 3 8 11 25 29 11 11 3 22 15 6 10 14 14 15 8 19 17
46 44 44 42 40 37 41 41 41 45 47 46 41 40 22 17 8 5 2 3 6 2 4 6 7 9 9 3 4 4 12 7 7 13 22 10 2 12 16 4 16 16 14 7 7 23 13
43 45 42 42 38 37 38 40 42 44 47 46 44 36 18 12 6 6 3 6 6 3 2 8 8 8 6 5 3 8 9 15 9 19 15 16 4 19 10 9 17 4 15 9 11 8 4
38 41 40 42 37 38 36 39 43 44 45 47 42 30 11 6 1 7 6 8 0 4 7 3 2 3 2 2 6 4 15 11 8 18 19 6 3 15 13 10 11 8 11 13 20 9 9
33 39 39 39 35 36 36 38 42 41 41 44 40 22 6 1 3 5 4 6 3 2 9 10 0 3 2 0 16 3 3 8 9 16 9 13 36 17 12 15 8 5 12 12 7 8 7
39 42 39 35 32 35 37 37 40 39 40 41 37 11 4 2 3 5 3 5 4 10 1 2 1 5 5 5 3 10 4 6 19 10 7 10 9 5 5 6 8 15 13 14 8 3 4
38 38 36 32 30 32 34 39 38 39 40 37 29 2 4 4 5 7 4 6 8 9 4 2 4 5 4 6 8 4 7 5 6 9 4 12 6 3 5 14 5 8 10 5 3 2 7
45 33 33 32 29 29 32 38 39 40 40 35 20 4 4 5 10 4 5 6 10 4 6 5 5 9 6 3 6 1 11 5 4 3 9 7 12 5 9 7 11 6 7 8 11 9 6
43 33 31 32 27 27 31 37 39 40 38 30 9 7 1 4 6 2 3 7 11 11 8 5 3 7 3 5 5 2 2 8 6 3 8 9 6 4 8 1 4 7 4 7 11 4 2
40 35 30 31 26 27 30 39 38 38 34 23 2 8 3 3 5 1 6 7 3 5 5 2 4 4 6 5 5 3 4 4 8 3 1 6 10 7 4 2 13 5 11 5 5 3 5
41 34 30 29 25 27 33 36 34 33 29 16 6 6 5 5 2 1 4 9 5 9 5 6 4 3 4 6 4 5 3 2 5 6 8 7 6 5 6 4 10 5 4 8 6 4 5
40 34 31 28 24 26 32 29 30 28 23 11 6 2 5 4 3 4 3 7 3 4 6 5 2 3 7 9 6 3 5 5 8 13 8 4 9 6 3 5 1 3 8 9 7 8 2
42 37 31 26 22 24 27 25 26 24 17 6 5 5 5 6 2 3 6 2 4 1 1 3 1 3 4 5 5 2 6 2 11 8 11 11 3 9 3 2 5 8 8 6 9 6 11
47 38 32 25 20 21 20 21 23 21 12 3 5 2 3 5 5 5 5 5 2 4 3 4 4 6 5 5 8 7 5 4 9 2 7 9 6 10 12 7 9 10 12 16 14 10 15
50 39 34 25 18 18 15 18 19 18 7 2 5 3 4 3 2 5 1 1 3 4 9 12 6 7 1 5 3 3 3 3 7 9 6 5 5 5 2 4 6 6 9 22 28 34 19
52 41 36 24 17 14 10 14 16 14 5 4 7 9 7 2 2 3 7 4 4 7 6 5 7 5 3 4 1 10 7 5 6 4 6 4 4 5 5 3 8 7 15 16 28 31 37
51 43 36 25 16 8 5 10 13 12 6 4 10 13 9 4 2 5 1 2 5 5 3 11 3 2 7 6 11 10 8 2 5 12 6 6 7 4 5 4 4 9 13 21 11 9 30
54 46 38 26 16 7 2 9 10 10 9 5 12 13 8 3 4 4 3 3 5 7 3 10 9 4 6 17 3 2 14 14 13 9 8 11 9 3 3 4 2 9 3 5 19 13 18
57 50 40 28 19 11 7 10 9 10 12 9 15 8 7 6 8 5 6 4 5 7 4 4 6 10 15 7 4 5 7 4 5 7 4 4 8 5 5 5 11 3 2 7 8 8 9
58 52 42 30 23 17 13 11 9 9 11 12 16 12 8 20 2 7 6 7 3 6 10 3 3 8 4 5 3 6 7 6 3 1 7 6 8 6 4 4 7 8 4 6 5 6 7
61 55 45 34 28 25 19 15 10 11 11 12 17 12 10 16 8 6 7 5 3 4 1 6 16 9 11 3 4 5 5 7 7 9 7 6 4 7 6 6 11 12 9 16 5 8 11
65 59 47 39 34 29 24 19 13 14 12 13 16 13 13 14 15 13 9 4 2 2 2 9 1 8 5 3 4 6 6 8 5 7 10 10 10 6 6 6 11 11 7 7 9 8 13
70 60 50 45 40 32 27 21 17 16 12 15 16 21 30 15 20 17 19 16 10 3 1 5 4 5 4 3 3 2 1 2 6 4 1 5 10 8 13 10 7 15 14 17 19 26 28
Wind_Direction_850mb
349 342 338 338 341 344 349 346 346 347 344 342 339 327 323 332 333 336 333 342 348 348 351 353 360 359 28 217 251 209 20 150 194 198 200 182 175 190 173 174 162 189 169 194 136 118 148
343 340 334 334 337 339 346 343 344 344 344 336 339 332 316 321 321 325 329 335 345 346 343 356 358 342 306 286 340 218 202 113 191 186 197 172 171 182 174 180 178 184 170 177 186 160 142
334 337 331 331 332 339 341 344 344 344 342 339 332 333 328 323 320 316 320 331 336 342 331 345 349 339 299 279 326 353 195 173 163 215 168 194 168 173 171 131 192 149 172 158 178 181 188
326 331 329 327 329 335 339 342 347 340 341 336 329 330 329 313 318 310 307 313 332 352 3 359 351 338 280 305 284 251 195 204 204 200 226 188 191 172 181 156 158 118 113 174 178 160 127
317 323 327 324 325 330 335 343 346 345 339 337 330 327 329 326 319 319 310 302 308 345 355 354 357 356 323 332 343 278 179 193 205 203 206 197 188 205 138 126 133 196 161 154 163 188 136
301 316 323 322 321 326 332 340 344 345 341 336 330 327 330 324 317 320 320 310 279 321 346 311 332 340 324 308 285 166 188 183 177 187 164 165 187 178 124 162 186 170 131 121 151 182 176
298 310 317 319 318 324 328 336 343 342 344 340 333 329 337 322 305 320 335 355 353 306 4 333 313 290 307 347 155 168 189 139 159 177 128 34 79 168 176 109 150 126 117 112 134 170 167
286 307 312 315 315 322 324 333 339 341 343 341 336 335 341 318 295 293 342 99 77 83 327 1 329 287 300 229 131 131 118 93 93 167 118 104 140 233 129 134 126 123 129 112 78 159 151
287 297 307 312 312 319 322 329 336 342 342 343 338 340 341 325 277 232 189 158 77 87 140 294 329 351 315 345 86 163 159 102 86 154 156 152 167 196 129 117 107 59 140 146 135 120 54
282 291 302 309 310 317 322 326 333 340 343 339 340 339 346 359 234 200 210 201 314 52 60 51 159 259 331 347 73 125 152 123 199 111 106 104 179 182 142 115 129 125 172 141 140 120 185
275 285 296 305 308 315 321 324 330 338 343 338 340 341 1 78 268 161 171 202 244 70 63 339 150 351 63 111 137 143 179 122 139 118 125 188 166 174 147 161 158 137 138 128 118 102 125
275 281 292 300 305 313 319 322 328 339 343 339 339 344 29 47 138 143 186 221 187 49 275 13 358 157 235 185 60 145 175 132 107 78 284 100 87 87 148 64 106 142 86 54 58 91 254
262 277 290 295 300 312 317 321 331 339 341 340 339 349 40 56 83 146 125 148 28 93 235 214 195 204 175 143 133 231 130 69 114 127 80 76 39 70 29 99 73 102 79 76 132 219 228
251 272 287 289 297 311 315 322 331 339 341 341 338 193 75 78 84 95 117 42 69 228 207 245 197 115 82 346 69 28 136 127 263 148 99 135 156 1 350 90 168 125 137 147 181 192 219
251 270 280 283 294 305 316 323 330 336 341 342 340 201 137 109 135 168 99 52 193 199 182 191 0 71 85 110 106 173 128 160 176 211 121 122 78 125 66 157 79 179 82 144 110 38 55
250 262 269 277 288 300 316 320 327 336 343 345 275 202 172 116 173 231 81 248 217 212 166 116 188 210 136 129 89 20 165 232 117 46 299 177 100 24 81 24 39 100 150 85 11 129 252
242 254 259 270 281 299 314 319 328 337 343 350 168 188 162 135 197 86 159 227 268 231 193 152 193 107 102 150 132 175 195 150 160 107 83 137 90 144 128 190 155 118 123 64 108 111 183
238 247 251 262 277 300 312 321 330 343 349 352 190 76 156 148 138 100 201 194 233 188 178 256 253 175 159 153 142 189 182 292 150 141 113 120 118 110 129 78 8 176 170 144 138 219 90
232 240 244 255 274 298 310 325 337 350 355 8 167 156 164 159 116 316 294 285 251 16 163 168 166 340 111 143 105 111 131 6 175 156 157 173 121 112 114 358 345 218 207 137 106 105 197
229 235 239 245 270 294 311 337 343 356 2 43 144 56 150 149 102 111 12 10 345 39 56 21 29 44 89 71 18 143 122 42 147 158 144 118 136 151 181 199 138 194 204 191 191 229 227
223 229 231 234 260 287 321 346 353 359 21 127 109 170 159 263 41 80 32 341 359 37 358 33 41 51 34 125 71 116 121 100 73 119 74 76 114 90 240 131 126 203 215 198 211 224 229
217 221 220 225 252 273 345 352 1 11 31 140 150 156 137 120 332 98 345 17 72 337 10 360 95 325 345 113 134 196 150 178 187 82 100 26 146 129 125 85 185 230 223 219 220 230 242
213 213 211 219 238 254 356 16 19 23 25 157 137 144 148 350 60 110 52 7 68 324 85 67 324 16 67 17 334 319 191 224 178 147 117 98 139 95 271 8 340 290 230 194 194 226 222
207 204 205 213 217 210 69 54 45 42 52 88 133 138 143 117 86 89 60 345 8 340 288 324 15 50 351 329 281 347 73 101 112 58 116 138 125 54 213 14 1 242 135 166 212 237 219
198 198 199 204 202 175 140 81 67 59 60 58 90 125 140 104 104 88 53 356 345 349 29 301 15 356 330 14 47 48 356 34 58 46 123 115 125 102 149 194 291 339 179 143 173 290 207
194 195 193 195 192 162 141 107 90 81 69 58 78 94 116 125 33 113 102 37 63 342 353 6 246 323 21 111 28 173 193 191 260 34 38 98 87 110 132 152 241 242 230 184 118 289 226
191 192 189 187 177 165 143 129 123 111 94 78 83 83 110 106 115 114 106 98 60 59 232 317 333 7 38 137 161 150 217 181 177 180 170 131 101 173 186 228 281 242 224 162 113 229 302
190 188 185 181 170 164 145 141 153 126 115 103 93 84 128 105 110 128 99 61 35 156 127 331 357 17 37 247 195 184 153 216 148 188 176 165 152 195 166 204 266 172 106 169 225 296 312
187 185 183 176 167 162 151 145 163 125 126 107 94 106 116 103 121 118 90 50 35 207 314 28 89 27 39 272 31 162 102 93 160 227 24 199 181 179 184 213 246 201 234 244 278 283 289